Flag for Germany Weather past 2 weeks in Aalen, Baden-Württemberg, Germany

Now
60 °F

Overcast.


Feels Like: 60 °F
Forecast: 51 / 66 °F
Wind: 2 mph from West

Location: Stoetten

Current Time: Sep 30, 2014 at 11:56:41 AM

Latest Report: Sep 30, 2014 at 11:00 AM


Visibility: 41 mi

Pressure: 30.29 "Hg

Humidity: 79%

Dew point: 53 °F

Location of AalenLocation

Historic Weather in Aalen — Graph

°F

Aalen temperature yesterday

Maximum temperature yesterday: 71 °F (at 3:00 PM)
Minimum temperature yesterday: 60 °F (at 12:00 AM)
Average temperature yesterday: 64 °F

Past Weeks' High & Low Weather Summary

 TemperatureHumidityPressure
High71 °F (Sep 29, 3:00 PM)100% (Sep 16, 7:00 AM)30.36 "Hg (Sep 16, 7:00 AM)
Low40 °F (Sep 24, 7:00 AM)42% (Sep 29, 4:00 PM)29.84 "Hg (Sep 18, 4:00 PM)
Average55 °F86%30.09 "Hg
* Reported Sep 15 10:00 AM — Sep 30 10:00 AM, Aalen, Weather by CustomWeather, © 2014

Note: Actual official high and low records may vary slightly from our data, if they occured in-between our weather recording intervals... More about our weather records

Advertising

Aalen weather history for previous 24 hours

 ConditionsComfort  
Time TempWeatherWind HumidityBarometerVisibility
10:00 AM
Sep 30
59 °FPartly sunny.2 mph80%30.29 "Hg40 mi
9:00 AM58 °FOvercast.1 mph84%30.29 "Hg40 mi
8:00 AM59 °FOvercast.2 mph76%30.28 "Hg37 mi
7:00 AM61 °FOvercast.2 mph68%30.26 "Hg34 mi
6:00 AM60 °FOvercast.1 mph72%30.27 "Hg28 mi
5:00 AM59 °FOvercast.2 mph76%30.27 "Hg19 mi
4:00 AM60 °FOvercast.2 mph76%30.26 "Hg22 mi
3:00 AM59 °FOvercast.3 mph78%30.28 "Hg19 mi
2:00 AM58 °FOvercast.5 mph77%30.28 "Hg22 mi
1:00 AM59 °FOvercast.3 mph76%30.28 "Hg19 mi
12:00 AM61 °FOvercast.2 mph76%30.27 "Hg17 mi
11:00 PM
Sep 29
61 °FOvercast.2 mph73%30.27 "Hg19 mi
10:00 PM62 °FOvercast.2 mph69%30.26 "Hg28 mi
9:00 PM61 °FPassing clouds.2 mph68%30.27 "Hg47 mi
8:00 PM62 °FPassing clouds.2 mph67%30.25 "Hg47 mi
7:00 PM63 °FPassing clouds.2 mph64%30.24 "Hg47 mi
6:00 PM68 °FScattered clouds.3 mph50%30.22 "Hg47 mi
5:00 PM69 °FPassing clouds.3 mph47%30.20 "Hg47 mi
4:00 PM70 °FScattered clouds.5 mph42%30.21 "Hg47 mi
3:00 PM71 °FScattered clouds.3 mph47%30.21 "Hg47 mi
2:00 PM69 °FScattered clouds.5 mph45%30.22 "Hg47 mi
1:00 PM69 °FPassing clouds.3 mph52%30.24 "Hg47 mi
12:00 PM68 °FScattered clouds.2 mph55%30.24 "Hg47 mi
11:00 AM67 °FScattered clouds.2 mph64%30.24 "Hg47 mi
Weather by CustomWeather, © 2014

See weather overviewHow to use our weather pages